GW1885 Weather Reports


Display with metric or nautical units.
time (UTC)temp
F
wind
direction
speed
MPH
gust
MPH
rain 1hr
in
rain 24hr
in
rain mn
in
humidity
%
barometer
mb
20260505171025 50 356 0.0 2.0 0.00 0.09 0.09 93 1009.8
20260505170505 50 357 0.0 2.0 0.00 0.09 0.09 93 1009.7
20260505170004 50 1 0.0 1.0 0.00 0.09 0.09 93 1009.8
20260505165504 50 1 0.0 1.0 0.00 0.09 0.09 92 1009.8
20260505165005 50 2 0.0 2.0 0.00 0.09 0.09 92 1009.7
20260505164505 50 4 0.0 3.0 0.00 0.09 0.09 92 1009.7
20260505164005 50 3 1.0 3.0 0.00 0.09 0.09 92 1009.7
20260505163505 51 360 1.0 2.0 0.00 0.09 0.09 93 1009.8
20260505163025 51 1 1.0 3.0 0.00 0.09 0.09 93 1009.8
20260505162504 51 2 1.0 3.0 0.00 0.09 0.09 92 1009.8
20260505162004 51 3 0.0 3.0 0.00 0.09 0.09 92 1009.8
20260505161505 51 4 0.0 1.0 0.00 0.09 0.09 93 1009.9
20260505161005 51 3 0.0 1.0 0.00 0.09 0.09 93 1009.7
20260505160526 51 3 0.0 2.0 0.00 0.09 0.09 92 1009.8
20260505153004 51 348 0.0 2.0 0.00 0.09 0.09 92 1009.9
20260505152505 51 348 0.0 1.0 0.01 0.09 0.09 93 1010.1
20260505152004 51 347 0.0 1.0 0.01 0.09 0.09 92 1010.1
20260505151504 51 352 0.0 2.0 0.01 0.09 0.09 94 1010.1
20260505151005 50 353 0.0 2.0 0.01 0.09 0.09 93 1010.1
20260505150525 50 356 0.0 2.0 0.01 0.09 0.09 93 1010.1
20260505140504 51 347 0.0 2.0 0.00 0.08 0.08 93 1010.5
20260505125004 50 275 0.0 1.0 0.04 0.07 0.07 93 1011.0
20260505124504 50 275 0.0 1.0 0.05 0.07 0.07 93 1011.0
20260505124005 50 0 0.0 0.0 0.05 0.07 0.07 94 1010.9
20260505123505 50 0 0.0 0.0 0.05 0.07 0.07 93 1011.0
20260505123004 50 275 0.0 2.0 0.05 0.06 0.06 93 1011.0
20260505122525 50 275 0.0 2.0 0.05 0.06 0.06 92 1011.1
20260505122005 50 275 0.0 1.0 0.05 0.06 0.06 92 1011.2
20260505121504 50 275 0.0 2.0 0.04 0.05 0.05 91 1011.1
20260505121004 50 275 0.0 2.0 0.04 0.05 0.05 91 1011.2
20260505120505 50 276 0.0 2.0 0.04 0.05 0.05 91 1011.2
20260505120005 50 274 0.0 2.0 0.04 0.04 0.04 89 1011.3
20260505115505 50 268 0.0 2.0 0.04 0.04 0.04 90 1011.2
20260505115004 50 265 0.0 2.0 0.04 0.04 0.04 89 1011.0
20260505114504 51 269 0.0 3.0 0.03 0.03 0.03 88 1011.0
20260505114025 51 274 0.0 3.0 0.02 0.02 0.02 85 1011.0
20260505113504 52 280 1.0 3.0 0.02 0.02 0.02 85 1010.9
20260505113005 52 305 1.0 4.0 0.02 0.02 0.02 84 1010.8
20260505112504 53 345 1.0 4.0 0.01 0.01 0.01 84 1010.9
20260505112005 53 7 0.0 3.0 0.01 0.01 0.01 82 1010.8
20260505111505 54 338 1.0 4.0 0.01 0.01 0.01 84 1010.8
20260505111004 54 317 1.0 4.0 0.00 0.00 0.00 82 1010.8
20260505110504 55 325 1.0 4.0 0.00 0.00 0.00 78 1010.8
20260505102004 60 289 1.0 6.0 0.00 0.00 0.00 57 1010.5
20260505101505 60 278 1.0 6.0 0.00 0.00 0.00 55 1010.4
20260505101004 60 277 1.0 3.0 0.00 0.00 0.00 55 1010.4
20260505100505 61 278 1.0 3.0 0.00 0.00 0.00 54 1010.4
20260505100004 61 285 1.0 4.0 0.00 0.00 0.00 54 1010.4
20260505095504 62 339 1.0 4.0 0.00 0.00 0.00 55 1010.6
20260505095004 62 320 1.0 4.0 0.00 0.00 0.00 54 1010.7
20260505094505 62 214 1.0 4.0 0.00 0.00 0.00 53 1010.6
20260505094005 61 234 2.0 4.0 0.00 0.00 0.00 53 1010.6
20260505093505 61 277 1.0 4.0 0.00 0.00 0.00 52 1010.7
20260505093005 62 283 1.0 4.0 0.00 0.00 0.00 52 1010.8
20260505092505 62 38 1.0 3.0 0.00 0.00 0.00 53 1010.6
20260505092004 62 55 1.0 2.0 0.00 0.00 0.00 52 1010.8
20260505091504 61 41 1.0 3.0 0.00 0.00 0.00 51 1010.7
20260505091004 61 301 1.0 3.0 0.00 0.00 0.00 57 1010.8
20260505090505 60 250 1.0 3.0 0.00 0.00 0.00 52 1010.7
20260505090005 60 159 1.0 4.0 0.00 0.00 0.00 47 1010.8
20260505085504 60 290 1.0 4.0 0.00 0.00 0.00 51 1010.7
20260505085025 59 304 1.0 4.0 0.00 0.00 0.00 54 1010.6
20260505084526 59 305 1.0 4.0 0.00 0.00 0.00 56 1010.8
20260505084025 58 294 1.0 3.0 0.00 0.00 0.00 56 1010.9
20260505083504 58 284 2.0 3.0 0.00 0.00 0.00 58 1010.7
20260505083004 58 279 1.0 3.0 0.00 0.00 0.00 62 1010.7
20260505082505 58 277 1.0 3.0 0.00 0.00 0.00 59 1010.6
20260505082025 58 281 1.0 3.0 0.00 0.00 0.00 58 1010.7
20260505081525 58 284 1.0 3.0 0.00 0.00 0.00 60 1010.5
20260505081005 58 302 1.0 3.0 0.00 0.00 0.00 66 1010.8
20260505080504 58 32 1.0 3.0 0.00 0.00 0.00 61 1010.8
20260505080025 57 119 1.0 2.0 0.00 0.00 0.00 65 1010.9
20260505075505 56 133 1.0 3.0 0.00 0.00 0.00 67 1010.7
20260505075004 56 152 1.0 3.0 0.00 0.00 0.00 64 1010.7
20260505074504 56 152 2.0 3.0 0.00 0.00 0.00 67 1011.1
20260505074005 55 152 2.0 3.0 0.00 0.00 0.00 66 1010.9
20260505073503 55 150 1.0 3.0 0.00 0.00 0.00 65 1011.0
20260505073004 55 141 1.0 6.0 0.00 0.00 0.00 70 1011.0
20260505072504 55 137 2.0 6.0 0.00 0.00 0.00 70 1011.0
20260505072005 54 136 2.0 4.0 0.00 0.00 0.00 73 1010.9
20260505071504 54 135 1.0 3.0 0.00 0.00 0.00 72 1011.1
20260505071005 54 135 2.0 3.0 0.00 0.00 0.00 73 1010.8
20260505070505 53 138 1.0 3.0 0.00 0.00 0.00 74 1011.0
20260505070004 53 140 1.0 3.0 0.00 0.00 0.00 74 1010.9
20260505065525 53 137 1.0 3.0 0.00 0.00 0.00 72 1010.8
20260505065005 53 126 1.0 2.0 0.00 0.00 0.00 75 1010.9
20260505064505 53 126 0.0 1.0 0.00 0.00 0.00 78 1010.6
20260505064004 52 140 1.0 2.0 0.00 0.00 0.00 78 1010.8
20260505063504 52 162 1.0 2.0 0.00 0.00 0.00 79 1011.1
20260505063026 52 205 0.0 2.0 0.00 0.00 0.00 83 1011.0
20260505062504 52 205 0.0 2.0 0.00 0.00 0.00 80 1010.8
20260505062005 51 206 0.0 2.0 0.00 0.00 0.00 82 1010.9
20260505061505 51 190 1.0 2.0 0.00 0.00 0.00 86 1010.8
20260505061026 51 164 1.0 2.0 0.00 0.00 0.00 86 1011.0
20260505060505 51 150 1.0 2.0 0.00 0.00 0.00 90 1011.0
20260505060004 51 150 2.0 4.0 0.00 0.00 0.00 91 1011.1
20260505055505 51 153 2.0 4.0 0.00 0.00 0.00 96 1011.1
20260505055004 50 154 2.0 4.0 0.00 0.00 0.00 98 1011.4
20260505054504 49 150 1.0 3.0 0.00 0.00 0.00 99 1011.2
20260505054004 48 149 1.0 2.0 0.00 0.00 0.00 99 1011.2
20260505053524 47 148 2.0 3.0 0.00 0.00 0.00 99 1011.1
20260505053025 47 149 2.0 3.0 0.00 0.00 0.00 99 1011.2
20260505052503 46 149 2.0 3.0 0.00 0.00 0.00 99 1011.2
20260505052005 46 151 2.0 2.0 0.00 0.00 0.00 99 1011.2
20260505051505 45 154 2.0 3.0 0.00 0.00 0.00 99 1011.2
20260505051004 45 156 1.0 3.0 0.00 0.00 0.00 99 1011.2
20260505050503 44 157 1.0 3.0 0.00 0.00 0.00 99 1011.1
20260505041503 41 158 1.0 2.0 0.00 0.00 0.00 99 1011.1
20260505041004 41 158 1.0 2.0 0.00 0.00 0.00 99 1011.1
20260505040503 40 158 1.0 1.0 0.00 0.00 0.00 99 1011.0
20260505040026 40 158 1.0 1.0 0.00 0.00 0.00 99 1011.1
20260505035504 40 158 0.0 1.0 0.00 0.00 0.00 99 1011.3
20260505035004 40 158 1.0 1.0 0.00 0.00 0.00 99 1011.1
20260505034504 39 158 0.0 1.0 0.00 0.00 0.00 99 1011.2
20260505034004 39 158 1.0 1.0 0.00 0.00 0.00 99 1011.1
20260505033505 39 158 1.0 2.0 0.00 0.00 0.00 99 1011.2
20260505033025 39 159 1.0 2.0 0.00 0.00 0.00 99 1011.3
20260505032504 39 159 1.0 1.0 0.00 0.00 0.00 99 1011.3
20260505032004 40 159 0.0 1.0 0.00 0.00 0.00 99 1011.1
20260505031504 40 159 0.0 1.0 0.00 0.00 0.00 99 1011.1
20260505031004 40 159 0.0 2.0 0.00 0.00 0.00 99 1011.2
20260505030503 40 159 0.0 2.0 0.00 0.00 0.00 99 1011.2
20260505030005 40 160 0.0 1.0 0.00 0.00 0.00 99 1011.1
20260505025504 40 160 0.0 1.0 0.00 0.00 0.00 99 1011.4
20260505025004 40 160 1.0 2.0 0.00 0.00 0.00 99 1011.3
20260505024504 40 160 1.0 2.0 0.00 0.00 0.00 99 1011.3
20260505024003 41 160 1.0 2.0 0.00 0.00 0.00 99 1011.3
20260505023503 41 160 1.0 2.0 0.00 0.00 0.00 99 1011.3
20260505023004 41 160 0.0 1.0 0.00 0.00 0.00 99 1011.4
20260505022504 40 160 0.0 1.0 0.00 0.00 0.00 99 1011.2
20260505022004 41 160 0.0 1.0 0.00 0.00 0.00 99 1011.1
20260505021503 41 160 1.0 2.0 0.00 0.00 0.00 99 1011.4
20260505021004 41 159 1.0 2.0 0.00 0.00 0.00 99 1011.5
20260505020505 40 159 1.0 2.0 0.00 0.00 0.00 99 1011.5
20260505020005 40 159 1.0 2.0 0.00 0.00 0.00 99 1011.5
20260505015504 40 160 1.0 2.0 0.00 0.00 0.00 99 1011.3
20260505015003 40 160 1.0 2.0 0.00 0.00 0.00 99 1011.3
20260505014505 40 161 1.0 3.0 0.00 0.00 0.00 98 1011.5
20260505014004 40 161 1.0 3.0 0.00 0.00 0.00 99 1011.4
20260505013525 40 161 1.0 2.0 0.00 0.00 0.00 98 1011.4
20260505013003 40 162 1.0 2.0 0.00 0.00 0.00 98 1011.4
20260505012525 41 162 1.0 2.0 0.00 0.00 0.00 98 1011.2
20260505012003 42 162 2.0 3.0 0.00 0.00 0.00 99 1011.5
20260505011503 41 161 1.0 3.0 0.00 0.00 0.00 99 1011.4
20260505011004 41 159 1.0 3.0 0.00 0.00 0.00 99 1011.3
20260505010503 41 158 2.0 3.0 0.00 0.00 0.00 98 1011.3
20260505010005 41 157 1.0 2.0 0.00 0.00 0.00 98 1011.4
20260505005504 42 157 1.0 2.0 0.00 0.00 0.00 98 1011.5
20260505005004 42 157 1.0 3.0 0.00 0.00 0.00 98 1011.4
20260505004525 42 156 1.0 3.0 0.00 0.00 0.00 98 1011.3
20260505004004 42 155 1.0 3.0 0.00 0.00 0.00 98 1011.3
20260505003504 42 154 1.0 3.0 0.00 0.00 0.00 98 1011.3
20260505003005 43 153 1.0 3.0 0.00 0.00 0.00 98 1011.5
20260505002504 42 153 0.0 1.0 0.00 0.00 0.00 98 1011.5
20260505002003 42 153 1.0 2.0 0.00 0.00 0.00 98 1011.5
20260505001524 43 153 1.0 2.0 0.00 0.00 0.00 98 1011.4
20260505001004 43 153 1.0 3.0 0.00 0.00 0.00 98 1011.6
20260505000504 43 153 1.0 3.0 0.00 0.00 0.00 98 1011.6
20260505000003 43 153 1.0 2.0 0.00 0.00 0.00 98 1011.4
20260504235524 43 152 1.0 2.0 0.00 0.00 0.00 98 1011.6
20260504235003 44 151 1.0 2.0 0.00 0.00 0.00 98 1011.6
20260504234503 43 151 1.0 2.0 0.00 0.00 0.00 98 1011.7
20260504234025 43 149 1.0 2.0 0.00 0.00 0.00 98 1011.6
20260504233525 43 148 1.0 2.0 0.00 0.00 0.00 98 1011.7
20260504233003 43 148 1.0 1.0 0.00 0.00 0.00 98 1011.7
20260504232525 43 148 1.0 2.0 0.00 0.00 0.00 98 1011.6
20260504232003 44 148 1.0 2.0 0.00 0.00 0.00 98 1011.8
20260504231504 44 147 1.0 2.0 0.00 0.00 0.00 98 1011.9
20260504231004 44 147 1.0 2.0 0.00 0.00 0.00 98 1011.9
20260504230503 44 147 1.0 2.0 0.00 0.00 0.00 98 1012.0
20260504230005 44 147 0.0 1.0 0.00 0.00 0.00 98 1011.9
20260504225504 44 147 0.0 1.0 0.00 0.00 0.00 98 1012.0
20260504225004 44 147 0.0 1.0 0.00 0.00 0.00 98 1011.9
20260504224525 44 147 0.0 1.0 0.00 0.00 0.00 98 1011.8
20260504224025 44 147 0.0 2.0 0.00 0.00 0.00 98 1011.9
20260504223503 44 147 1.0 2.0 0.00 0.00 0.00 98 1012.0
20260504223003 44 147 1.0 2.0 0.00 0.00 0.00 98 1012.0
20260504222504 43 146 1.0 2.0 0.00 0.00 0.00 97 1012.0
20260504222003 43 144 1.0 2.0 0.00 0.00 0.00 97 1012.0
20260504221504 44 143 1.0 2.0 0.00 0.00 0.00 97 1012.1
20260504221004 44 142 1.0 2.0 0.00 0.00 0.00 97 1012.1
20260504220524 44 148 1.0 2.0 0.00 0.00 0.00 97 1012.1
20260504220004 44 155 1.0 2.0 0.00 0.00 0.00 97 1012.1
20260504215504 44 158 1.0 1.0 0.00 0.00 0.00 96 1012.2
20260504215004 44 158 1.0 2.0 0.00 0.00 0.00 96 1012.1
20260504214503 44 158 1.0 2.0 0.00 0.00 0.00 96 1012.1
20260504214004 44 158 1.0 2.0 0.00 0.00 0.00 96 1012.1
20260504213504 44 158 0.0 2.0 0.00 0.00 0.00 96 1012.2
20260504213003 45 158 0.0 2.0 0.00 0.00 0.00 96 1012.2
20260504212504 45 158 1.0 2.0 0.00 0.00 0.00 95 1012.3
20260504212003 45 158 1.0 2.0 0.00 0.00 0.00 95 1012.0
20260504211524 46 158 0.0 1.0 0.00 0.00 0.00 95 1012.2
20260504211003 46 158 1.0 2.0 0.00 0.00 0.00 95 1012.1
20260504210503 46 158 1.0 2.0 0.00 0.00 0.00 95 1012.1
20260504210004 47 158 1.0 2.0 0.00 0.00 0.00 95 1012.0
20260504205504 47 158 0.0 1.0 0.00 0.00 0.00 95 1012.2
20260504205003 47 158 0.0 1.0 0.00 0.00 0.00 95 1012.2
20260504204504 47 158 1.0 2.0 0.00 0.00 0.00 95 1012.4
20260504204004 47 158 1.0 2.0 0.00 0.00 0.00 95 1012.2
20260504203503 47 159 1.0 2.0 0.00 0.00 0.00 95 1012.3
20260504203003 47 159 2.0 3.0 0.00 0.00 0.00 94 1012.3
20260504202503 47 159 1.0 3.0 0.00 0.00 0.00 94 1012.2
20260504202004 47 159 1.0 3.0 0.00 0.00 0.00 94 1012.2
20260504201503 47 159 1.0 3.0 0.00 0.00 0.00 93 1012.2
20260504201025 48 159 1.0 3.0 0.00 0.00 0.00 93 1012.3
20260504200503 48 159 2.0 3.0 0.00 0.00 0.00 93 1012.2
20260504200024 48 159 2.0 3.0 0.00 0.00 0.00 92 1012.1
20260504195504 49 153 1.0 3.0 0.00 0.00 0.00 92 1012.1
20260504195004 49 146 1.0 3.0 0.00 0.00 0.00 93 1012.2
20260504194503 49 137 1.0 2.0 0.00 0.00 0.00 92 1012.1
20260504194004 49 137 1.0 2.0 0.00 0.00 0.00 92 1012.2
20260504193503 49 137 1.0 2.0 0.00 0.00 0.00 91 1012.1
20260504193004 50 124 1.0 2.0 0.00 0.00 0.00 90 1012.3
20260504192504 50 94 1.0 2.0 0.00 0.00 0.00 91 1012.0
20260504192024 49 70 1.0 2.0 0.00 0.00 0.00 91 1012.1
20260504191503 49 62 0.0 1.0 0.00 0.00 0.00 90 1012.2
20260504191003 50 62 0.0 1.0 0.00 0.00 0.00 90 1012.2
20260504190503 50 62 0.0 1.0 0.00 0.00 0.00 89 1012.3
20260504190004 50 62 0.0 2.0 0.00 0.00 0.00 89 1012.4
20260504185503 51 62 0.0 2.0 0.00 0.00 0.00 88 1012.2
20260504185003 51 62 0.0 2.0 0.00 0.00 0.00 87 1012.3
20260504184503 52 58 0.0 2.0 0.00 0.00 0.00 87 1012.3
20260504184003 52 41 0.0 2.0 0.00 0.00 0.00 87 1012.3
20260504183503 52 16 1.0 2.0 0.00 0.00 0.00 86 1012.1
20260504183003 52 348 1.0 4.0 0.00 0.00 0.00 86 1012.2
20260504182503 52 327 1.0 4.0 0.00 0.00 0.00 86 1012.0
20260504182003 53 328 1.0 3.0 0.00 0.00 0.00 85 1012.0
20260504181503 53 250 1.0 3.0 0.00 0.00 0.00 85 1012.0
20260504181004 53 264 1.0 3.0 0.00 0.00 0.00 85 1012.1
20260504180504 53 280 0.0 3.0 0.00 0.00 0.00 85 1012.0
20260504180004 53 334 1.0 4.0 0.00 0.00 0.00 84 1011.8
20260504175525 54 338 1.0 4.0 0.00 0.00 0.00 84 1011.8
20260504175004 54 317 1.0 8.0 0.00 0.00 0.00 83 1011.9
20260504174503 54 310 1.0 8.0 0.00 0.00 0.00 83 1011.8
20260504174003 54 299 1.0 3.0 0.00 0.00 0.00 82 1011.9
20260504173504 54 298 1.0 4.0 0.00 0.00 0.00 82 1011.7
20260504173003 55 293 2.0 6.0 0.00 0.00 0.00 81 1011.7
20260504172504 55 287 2.0 9.0 0.00 0.00 0.00 80 1011.8
20260504172004 56 283 2.0 9.0 0.00 0.00 0.00 79 1011.7
20260504171503 56 282 2.0 6.0 0.00 0.00 0.00 80 1011.8